Flag for U.S.A. Weather past 2 weeks in Seattle, Washington, U.S.A.

Now
62 °F

Overcast.


Feels Like: 62 °F
Forecast: 53 / 61 °F
Wind: 6 mph from North

Location: Seattle Boeing Field

Current Time: Sep 30, 2014 at 10:10:25 PM

Latest Report: Sep 30, 2014 at 8:53 PM


Visibility: 10 mi

Pressure: 30.14 "Hg

Humidity: 65%

Dew point: 50 °F

Location of SeattleLocation

Historic Weather in Seattle — Graph

°F

Seattle temperature yesterday

Maximum temperature yesterday: 65 °F (at 2:53 PM)
Minimum temperature yesterday: 54 °F (at 3:53 AM)
Average temperature yesterday: 59 °F

Past Weeks' High & Low Weather Summary

 TemperatureHumidityPressure
High83 °F (Sep 21, 1:53 PM)94% (Sep 29, 7:01 AM)30.14 "Hg (Sep 29, 7:01 AM)
Low54 °F (Sep 29, 3:53 AM)38% (Sep 21, 1:53 PM)29.68 "Hg (Sep 23, 10:53 PM)
Average65 °F71%29.92 "Hg
* Reported Sep 15 8:53 PM — Sep 30 8:53 PM, Seattle, Weather by CustomWeather, © 2014

Note: Actual official high and low records may vary slightly from our data, if they occured in-between our weather recording intervals... More about our weather records

Advertising

Seattle weather history for previous 24 hours

 ConditionsComfort  
Time TempWeatherWind HumidityBarometerVisibility
8:53 PM
Sep 30
62 °FOvercast.6 mph65%30.14 "Hg10 mi
7:53 PM64 °FPartly cloudy.No wind61%30.12 "Hg10 mi
6:53 PM66 °FOvercast.No wind49%30.10 "Hg10 mi
5:53 PM67 °FScattered clouds.3 mph53%30.09 "Hg10 mi
4:53 PM68 °FPartly sunny.3 mph53%30.09 "Hg10 mi
3:53 PM67 °FMostly cloudy.5 mph53%30.09 "Hg10 mi
2:53 PM66 °FMore clouds than sun.No wind52%30.09 "Hg10 mi
1:53 PM67 °FOvercast.8 mph51%30.09 "Hg10 mi
12:53 PM65 °FBroken clouds.6 mph61%30.10 "Hg10 mi
11:53 AM63 °FPassing clouds.5 mph63%30.10 "Hg10 mi
10:53 AM62 °FPartly sunny.5 mph65%30.09 "Hg10 mi
10:01 AM63 °FPartly sunny.6 mph68%30.08 "Hg10 mi
9:53 AM62 °FBroken clouds.8 mph70%30.08 "Hg10 mi
8:53 AM57 °FBroken clouds.7 mph81%30.06 "Hg10 mi
8:00 AM57 °FOvercast.7 mph82%30.06 "Hg10 mi
6:53 AM57 °FMostly cloudy.3 mph81%30.03 "Hg10 mi
5:53 AM58 °FMostly cloudy.No wind78%30.03 "Hg10 mi
4:53 AM57 °FMostly cloudy.5 mph83%30.01 "Hg10 mi
3:53 AM56 °FPartly cloudy.5 mph84%30.01 "Hg10 mi
2:53 AM56 °FPassing clouds.6 mph87%30.02 "Hg10 mi
1:53 AM57 °FPassing clouds.8 mph83%29.99 "Hg10 mi
12:53 AM58 °FPartly cloudy.7 mph81%29.98 "Hg10 mi
11:53 PM
Sep 29
59 °FLight rain. Mostly cloudy.8 mph81%29.97 "Hg5 mi
10:53 PM60 °FMostly cloudy.6 mph78%29.96 "Hg10 mi
Weather by CustomWeather, © 2014

See weather overviewHow to use our weather pages